Content
SEND FEEDBACK

Daily
Averages
Monthly
Summary
United States of America

PARLIN, COLORADO


Home > North America > United States > Colorado
Elevation: 2574 meters     Latitude: 38 26N     Longitude: 106 46W

WEATHER
 
SELECT A DAY
Number of Records: 448,499;   Date Range: 1/1/95 - 9/22/14
 
SHARE

PRINT THIS DATA

[ ← Previous Day ]
WEATHER ALMANAC - 31 JANUARY, 2013
[ Next Day → ]
[ °F ]   °C
Weather ElementAverageHighLow
Temperature-5.4 °C1 °C (2:15 pm)-13 °C (10:35 pm)
Dewpoint-10.3 °C-5 °C (5:15 am)-19 °C (9:55 pm)
Humidity70.4 %100 % (9:35 pm)48 % (2:15 pm)
Barometer1024.4 hPa1026.8 hPa (9:35 pm)1020 hPa (1:15 am)
Wind Speed9.3 km/h25.9 km/h (10:35 am)
Wind Gust35.2 km/h (4:15 am)
Weather ElementAverage
Visibility15.8 km
Wind DirectionSSE (163.7 °)

Weather ElementTotal
Precipitation---
Heating Degree Days24.3 (Base 18.3)
Averaged from 60 records on 31 January, 2013
WEATHER CONDITIONS BREAKOUT
WIND DIRECTION BREAKOUT
WEATHER BY HOUR - 31 JANUARY, 2013
[ °F ]   °C
Local TimeTemperatureDewpointHumidityBarometerVisibilityWind DirectionWind SpeedGust SpeedPrecipitationEventsConditions
12:35 AM-7 °C-9 °C86 %1020.3 hPa16.1 kmNorth (350°)9.3 km/hOvercast
12:55 AM-7 °C-9 °C86 %1020.3 hPa16.1 kmNorth (10°)11.1 km/hOvercast
1:15 AM-7 °C-9 °C86 %1020 hPa16.1 kmNorth (350°)7.4 km/hOvercast
1:55 AM-7 °C-8 °C93 %1020.3 hPa16.1 kmNNE (20°)5.6 km/hOvercast
2:15 AM-7 °C-9 °C86 %1020 hPa14.5 kmNorth (350°)11.1 km/hMostly Cloudy
2:35 AM-7 °C-9 °C86 %1020.3 hPa12.9 kmNorth (360°)11.1 km/hOvercast
2:55 AM-7 °C-9 °C86 %1020 hPa12.9 kmNorth (350°)5.6 km/hOvercast
3:15 AM-7 °C-9 °C86 %1020 hPa8 kmWSW (240°)5.6 km/hOvercast
3:55 AM-7 °C-12 °C68 %1020.3 hPa16.1 kmNorth (360°)9.3 km/hOvercast
4:15 AM-4 °C-7 °C80 %1020.3 hPa14.5 kmWSW (250°)24.1 km/h35.2 km/hOvercast
4:35 AM-4 °C-7 °C80 %1021.3 hPa16.1 kmNNE (20°)11.1 km/hOvercast
4:55 AM-6 °C-7 °C93 %1021.7 hPa16.1 kmNorth (350°)7.4 km/hOvercast
5:15 AM-4 °C-5 °C93 %1021.3 hPa16.1 kmWSW (250°)18.5 km/hOvercast
5:55 AM-6 °C-8 °C86 %1022.4 hPa16.1 kmENE (70°)9.3 km/hOvercast
6:15 AM-6 °C-8 °C86 %1022.4 hPa16.1 kmCalmMostly Cloudy
6:35 AM-7 °C-12 °C68 %1022.4 hPa16.1 kmNW (310°)5.6 km/hScattered Clouds
6:55 AM-8 °C-11 °C79 %1022.4 hPa16.1 kmNorth (360°)11.1 km/hClear
7:35 AM-9 °C-12 °C79 %1023.4 hPa16.1 kmNorth (350°)9.3 km/hClear
7:55 AM-10 °C-13 °C79 %1024 hPa16.1 kmNNW (340°)13 km/hPartly Cloudy
8:15 AM-9 °C-12 °C79 %1024.4 hPa16.1 kmNNE (20°)9.3 km/hMostly Cloudy
8:35 AM-8 °C-10 °C86 %1024.7 hPa16.1 kmNorth (350°)13 km/hScattered Clouds
8:55 AM-8 °C-12 °C73 %1025.1 hPa16.1 kmNNE (20°)9.3 km/hMostly Cloudy
9:15 AM-8 °C-12 °C73 %1025.7 hPa16.1 kmENE (60°)13 km/hMostly Cloudy
9:35 AM-5 °C-9 °C74 %1025.7 hPa16.1 kmCalmScattered Clouds
9:55 AM-2 °C-6 °C74 %1026.1 hPa16.1 kmSW (230°)20.4 km/h31.5 km/hPartly Cloudy
10:15 AM-2 °C-7 °C69 %1026.1 hPa16.1 kmWSW (240°)16.7 km/h29.6 km/hClear
10:35 AM-1 °C-7 °C64 %1026.4 hPa16.1 kmWSW (250°)25.9 km/h33.3 km/hClear
10:55 AM-1 °C-8 °C60 %1026.4 hPa16.1 kmWSW (240°)25.9 km/h33.3 km/hClear
11:15 AM-1 °C-8 °C60 %1026.4 hPa16.1 kmWSW (240°)20.4 km/h31.5 km/hPartly Cloudy
11:35 AM-1 °C-9 °C55 %1026.4 hPa16.1 kmWSW (240°)16.7 km/hMostly Cloudy
12:15 PM-1 °C-8 °C60 %1026.1 hPa16.1 kmWSW (240°)24.1 km/h33.3 km/hOvercast
12:35 PM0 °C-9 °C51 %1025.7 hPa16.1 kmWSW (240°)20.4 km/h31.5 km/hOvercast
12:55 PM0 °C-9 °C51 %1025.4 hPa16.1 kmSW (230°)18.5 km/hPartly Cloudy
1:15 PM-1 °C-9 °C55 %1025.1 hPa16.1 kmWSW (250°)13 km/hPartly Cloudy
1:35 PM-1 °C-9 °C55 %1025.1 hPa16.1 kmWest (260°)11.1 km/hMostly Cloudy
2:15 PM1 °C-9 °C48 %1024.7 hPa16.1 kmCalmClear
2:35 PM0 °C-9 °C51 %1024.7 hPa16.1 kmSouth (170°)7.4 km/hClear
2:55 PM0 °C-9 °C51 %1024.7 hPa16.1 kmSouth (180°)9.3 km/hClear
3:15 PM0 °C-9 °C51 %1024.7 hPa16.1 kmSouth (180°)7.4 km/hClear
3:35 PM0 °C-10 °C48 %1024.4 hPa16.1 kmSSE (160°)5.6 km/hClear
3:55 PM-1 °C-10 °C51 %1024.4 hPa16.1 kmSE (130°)5.6 km/hClear
4:15 PM-1 °C-9 °C55 %1024.4 hPa16.1 kmESE (120°)7.4 km/hClear
4:35 PM-1 °C-10 °C51 %1024.4 hPa16.1 kmEast (90°)7.4 km/hClear
5:15 PM-2 °C-11 °C51 %1024.4 hPa16.1 kmSE (140°)5.6 km/hClear
5:35 PM-3 °C-9 °C64 %1024.4 hPa16.1 kmCalmClear
6:15 PM-5 °C-12 °C59 %1025.1 hPa16.1 kmNorth (350°)5.6 km/hClear
6:35 PM-5 °C-11 °C63 %1025.4 hPa16.1 kmNorth (10°)7.4 km/hClear
6:55 PM-7 °C-11 °C74 %1025.7 hPa16.1 kmSE (140°)7.4 km/hClear
7:15 PM-9 °C-13 °C73 %1025.7 hPa16.1 kmSSE (160°)9.3 km/hClear
7:35 PM-9 °C-14 °C68 %1025.7 hPa16.1 kmCalmClear
7:55 PM-8 °C-13 °C68 %1026.4 hPa16.1 kmCalmClear
8:15 PM-9 °C-13 °C73 %1026.4 hPa16.1 kmNE (50°)7.4 km/hPartly Cloudy
8:35 PM-9 °C-12 °C79 %1026.4 hPa16.1 kmNE (50°)11.1 km/hMostly Cloudy
9:15 PM-11 °C-16 °C67 %1026.4 hPa16.1 kmEast (90°)7.4 km/hMostly Cloudy
9:35 PM-11 °C-11 °C100 %1026.8 hPa16.1 kmCalmOvercast
9:55 PM-11 °C-19 °C53 %1026.8 hPa16.1 kmCalmMostly Cloudy
10:15 PM-11 °C-14 °C79 %1026.8 hPa16.1 kmCalmPartly Cloudy
10:35 PM-13 °C-17 °C73 %1026.8 hPa16.1 kmCalmClear
11:15 PM-12 °C-14 °C85 %1026.8 hPa16.1 kmCalmClear
11:35 PM-13 °C-19 °C62 %1026.8 hPa16.1 kmCalmClear
Hourly data recorded from KGUC, located 0 kilometers away from Parlin, Colorado







STORIES FROM OUR PARTNERS